GFSFLT2_sfc_rhum_084.txt.gz
RH
82 85 85 92 91 89 92 90 84 87 88 93 86 88 86 84 84 84 86 87 86 84 85 83 82 78 74 74 73 73 46 52
88 89 89 89 91 92 91 89 90 87 92 98 89 90 85 83 86 87 88 88 85 84 86 84 82 78 75 69 67 72 44 51
86 92 90 89 89 86 90 91 92 95 91 96 95 87 94 81 85 87 88 88 87 86 86 85 81 77 73 73 81 48 46 56
85 87 91 89 87 84 83 86 93 93 95 97 94 94 93 83 89 89 88 88 88 88 86 82 70 68 72 76 64 48 50 59
84 85 88 93 88 90 91 93 96 94 96 94 91 95 95 95 96 94 88 87 82 83 78 60 58 59 62 62 60 45 53 59
80 83 84 88 92 87 91 94 94 94 91 91 92 96 97 96 95 96 83 76 76 73 65 62 59 56 60 62 54 47 57 64
76 79 84 82 84 86 84 90 94 91 94 90 93 94 96 94 95 96 73 62 62 62 58 51 57 54 58 54 54 50 58 62
80 79 84 81 83 84 85 83 91 94 93 92 91 93 92 95 95 91 59 57 54 54 57 58 54 56 60 56 51 51 56 63
85 89 87 84 80 86 92 92 94 96 94 92 92 92 91 91 93 90 61 56 54 62 58 61 62 53 58 59 58 55 54 60
75 79 82 83 89 93 98 98 98 98 98 94 89 89 84 86 89 91 86 77 68 58 62 64 63 63 63 62 60 57 56 58
72 83 82 84 92 96 97 96 98 97 96 96 90 92 85 85 91 92 92 88 78 65 68 66 63 62 58 63 61 62 63 51
74 78 80 84 93 96 96 97 97 96 96 93 89 90 91 92 95 95 86 86 76 73 66 66 62 60 38 49 62 66 64 67
74 79 82 88 94 95 98 98 97 94 93 92 89 86 84 91 95 94 86 81 77 71 68 64 60 58 64 65 61 61 66 66
76 75 82 84 88 91 91 91 92 89 91 83 82 81 80 80 76 76 72 73 73 74 68 71 66 67 66 66 70 66 62 62
75 76 83 84 87 90 92 90 90 87 82 79 82 78 68 62 66 61 62 63 67 71 72 69 70 70 69 77 86 87 75 66
63 75 80 82 87 90 93 90 88 78 74 70 74 70 66 57 61 60 72 68 72 69 74 68 78 68 81 80 90 88 91 95
66 75 80 79 87 86 87 84 73 75 70 68 68 70 70 69 64 68 71 79 79 73 78 82 88 89 76 84 85 91 92 89
71 78 82 79 87 86 84 81 77 84 73 66 66 72 75 72 74 79 78 84 79 85 84 86 84 86 92 89 84 85 91 94
73 75 82 81 85 83 82 78 76 78 75 69 67 71 73 72 75 81 79 80 85 83 83 84 88 88 86 84 88 87 84 85
65 69 73 79 80 83 79 76 74 74 73 69 67 66 66 69 72 73 75 78 82 84 88 80 87 93 89 86 85 82 78 72

GFSFLT2_sfc_rhum_087.txt.gz
RH
95 95 92 93 93 92 91 91 87 87 85 86 89 97 86 87 86 86 87 87 87 86 84 85 80 79 75 72 71 71 64 64
91 96 93 96 95 92 93 90 89 87 85 90 93 92 82 84 86 88 88 88 87 85 86 84 81 78 73 76 73 71 63 68
91 96 96 96 97 92 92 89 88 90 90 91 94 97 93 84 89 90 89 88 87 86 86 83 80 77 72 80 70 60 66 69
91 96 96 97 94 97 95 92 97 98 95 98 95 96 97 94 89 90 90 89 89 87 85 82 71 67 72 70 57 63 67 69
90 93 95 95 97 98 99 99 99 97 96 97 100 97 94 94 97 97 93 90 87 82 80 72 67 66 67 66 58 65 68 67
94 91 96 95 95 92 96 98 99 99 97 98 96 98 97 97 97 97 92 88 94 85 82 70 67 62 62 67 59 66 70 73
94 94 94 94 95 97 96 96 98 98 96 94 95 95 95 96 96 96 85 86 81 80 75 64 64 59 63 63 63 69 69 73
93 94 95 94 95 94 97 97 96 98 97 94 92 93 94 94 97 95 86 72 73 68 73 58 63 58 64 58 64 67 69 77
93 94 93 93 94 95 97 98 98 98 98 94 93 91 92 92 97 93 74 63 60 63 67 67 63 60 62 62 61 66 70 74
94 91 95 90 92 98 99 99 99 99 99 96 93 91 89 94 96 93 75 63 55 67 64 62 68 68 69 68 60 66 69 70
96 95 95 95 98 98 98 98 99 99 99 99 96 92 88 93 94 92 83 75 68 68 72 65 66 68 64 70 69 64 69 63
92 94 95 97 98 98 98 99 98 98 98 97 94 92 89 90 90 94 92 83 75 62 68 70 65 62 49 64 71 66 64 70
92 94 98 97 98 98 98 98 98 98 97 95 93 90 93 92 95 94 92 78 71 66 66 62 67 66 68 70 71 68 66 70
93 94 96 92 90 90 93 94 94 94 95 94 93 93 91 90 94 95 94 84 75 71 70 73 68 67 64 70 74 66 68 69
91 94 93 88 89 89 93 93 94 95 92 89 92 91 92 93 94 94 92 82 78 74 69 66 61 75 68 79 88 85 76 70
88 92 91 88 90 91 92 91 92 85 84 82 82 83 84 82 80 78 78 78 74 77 71 72 75 67 87 85 88 87 87 89
88 90 86 86 90 87 87 87 80 80 80 83 83 82 74 71 72 71 69 74 76 71 79 82 87 86 80 87 88 95 94 95
86 89 86 87 88 87 85 83 80 87 77 82 80 75 78 76 65 62 76 74 84 81 83 84 92 91 88 89 86 90 96 95
86 86 85 86 90 87 82 78 75 77 71 75 75 76 76 76 73 69 77 81 85 83 88 87 90 95 94 88 90 86 90 90
81 85 77 84 89 87 83 75 73 73 68 66 69 72 69 83 86 83 80 87 89 85 87 92 93 95 92 94 90 87 90 89

GFSFLT2_sfc_rhum_093.txt.gz
RH
96 96 95 97 99 98 98 95 92 90 90 92 91 91 94 90 90 85 84 84 86 86 86 88 86 85 87 86 85 83 77 77
98 98 97 98 98 99 98 93 96 93 91 93 95 93 94 94 91 90 86 83 88 85 89 85 82 86 86 86 84 82 77 76
98 98 98 98 98 98 97 95 93 94 95 93 95 96 94 91 92 93 91 85 89 89 86 83 84 86 85 84 78 73 72 75
97 99 98 98 95 96 98 94 95 95 97 97 98 95 94 91 87 92 93 92 87 86 85 86 83 80 81 78 74 70 74 75
100 99 98 98 98 99 99 100 99 99 98 98 98 98 96 96 96 95 96 92 89 88 78 77 78 76 77 78 73 69 74 73
98 99 99 98 96 99 99 100 96 96 99 98 98 98 97 97 96 97 99 95 88 83 80 70 74 72 73 76 74 71 75 76
97 99 99 99 97 98 99 99 97 96 99 98 98 98 97 99 97 97 98 92 84 85 76 69 72 72 76 77 80 79 76 75
97 98 98 98 99 96 97 99 97 98 99 98 95 97 97 98 98 97 98 88 81 76 75 72 77 74 78 78 79 81 78 84
97 98 98 98 98 97 97 98 99 98 98 98 97 92 95 94 97 97 95 83 80 80 79 73 76 75 77 79 80 82 84 82
96 95 98 98 98 98 98 99 99 99 97 97 96 94 90 93 96 96 91 86 81 79 75 74 80 79 84 81 82 81 82 85
97 97 97 98 98 99 99 98 99 99 99 97 94 94 93 94 96 95 89 84 77 74 81 70 82 82 82 85 88 84 83 77
95 97 98 98 98 99 100 99 99 98 98 99 97 94 94 94 96 94 87 83 78 74 69 76 84 79 70 80 85 92 82 82
96 98 96 97 98 98 99 99 99 99 99 98 99 96 93 96 96 95 92 72 69 73 67 70 81 82 81 92 91 92 90 84
94 95 95 90 90 89 91 92 98 97 98 98 97 98 96 93 96 94 89 70 70 74 62 76 82 77 80 85 95 89 84 86
93 91 92 87 96 99 98 98 98 98 97 98 97 97 97 97 96 93 93 83 80 73 62 62 73 84 70 86 96 96 93 92
96 88 89 85 97 98 97 98 94 92 93 94 98 95 96 98 93 94 94 85 80 78 66 60 70 73 81 83 86 87 95 95
92 90 90 88 96 96 98 97 96 97 93 95 98 99 97 95 95 94 91 82 90 88 80 78 75 78 71 91 94 95 89 89
90 91 90 86 96 96 94 90 90 98 95 95 95 96 99 97 95 96 94 90 96 96 87 83 87 83 82 91 89 88 93 90
90 90 91 92 96 95 87 84 85 96 91 92 92 94 97 98 95 93 92 86 94 94 92 87 84 81 82 81 88 87 89 86
91 91 89 90 93 94 83 81 90 91 91 87 87 88 88 92 91 87 84 86 89 89 91 89 91 91 86 84 83 86 89 87

GFSFLT2_sfc_rhum_096.txt.gz
RH
97 96 97 98 98 97 98 95 96 94 94 90 89 90 88 84 85 86 87 85 88 90 90 90 89 89 89 88 87 85 83 80
98 98 98 99 99 99 97 96 94 94 94 92 87 85 84 82 83 85 89 88 88 90 92 90 90 89 88 88 88 86 84 83
98 98 98 98 98 99 97 96 96 94 96 96 93 94 94 90 88 86 86 81 83 90 90 88 90 89 88 87 83 84 83 85
98 98 99 99 99 99 97 96 95 94 96 96 98 98 98 95 89 91 80 85 88 89 87 89 86 87 87 82 83 81 83 85
96 99 98 99 100 99 99 99 98 98 97 98 98 98 98 98 98 99 98 88 93 94 85 83 88 86 85 85 82 83 81 79
93 96 99 98 99 99 99 99 98 98 99 98 99 98 98 97 98 98 96 96 99 95 84 87 86 83 80 82 81 82 84 80
98 95 97 98 98 99 98 99 97 95 99 98 97 98 98 97 96 98 96 96 98 92 87 82 81 79 80 78 79 80 81 80
97 97 96 95 99 98 98 99 96 96 98 98 98 97 98 98 98 98 97 98 98 91 82 78 78 77 80 79 82 78 82 84
96 98 99 99 99 98 98 97 96 97 97 97 98 97 97 97 99 98 98 98 97 89 82 80 83 79 82 80 81 87 88 84
95 95 99 99 99 99 99 99 98 98 98 98 98 96 96 97 97 98 98 97 95 84 77 79 82 83 88 89 86 86 88 87
96 98 98 99 98 99 99 99 99 99 98 97 96 96 95 96 97 98 97 95 88 83 83 77 83 87 87 94 92 92 87 81
95 97 98 99 99 99 99 100 99 99 99 97 95 95 94 95 97 97 92 91 83 78 77 79 81 84 76 89 95 94 92 92
96 97 98 97 98 98 99 99 99 100 99 97 98 94 96 95 97 96 94 88 85 77 76 82 87 80 87 91 95 94 91 91
96 90 93 92 95 89 92 93 98 98 99 97 97 98 96 95 97 96 95 92 86 75 70 80 86 80 84 88 96 91 89 87
94 88 90 89 87 91 97 98 98 98 99 99 98 98 96 95 95 94 95 92 91 79 68 68 80 87 78 90 98 97 95 92
90 87 90 86 90 94 93 92 97 96 98 98 98 97 97 97 98 94 95 95 94 83 65 65 74 82 80 82 86 89 96 97
86 87 90 88 93 97 98 98 90 88 98 96 98 97 96 98 97 94 93 91 88 84 73 70 72 79 79 92 91 93 90 91
88 89 90 88 93 97 96 97 94 98 97 97 93 99 98 98 97 96 95 93 93 89 78 70 80 82 88 86 88 86 90 87
87 88 90 93 95 97 96 96 96 92 92 94 97 98 99 99 97 98 97 90 90 89 89 89 92 85 85 88 87 84 87 80
87 87 91 91 94 96 96 95 96 88 97 91 93 94 95 97 96 94 93 92 93 93 89 88 96 95 89 82 86 82 87 81

GFSFLT2_sfc_rhum_102.txt.gz
RH
69 72 80 96 93 94 95 95 94 94 92 91 86 88 88 87 87 87 85 83 82 89 90 94 93 94 91 89 86 78 39 39
68 67 70 73 75 95 95 96 95 93 92 93 93 92 91 90 90 87 85 81 80 87 92 93 94 94 93 88 86 79 42 40
66 63 68 70 69 76 95 96 95 95 90 93 91 65 67 70 72 87 87 87 87 86 94 89 96 94 93 88 84 43 44 38
58 62 60 68 64 74 74 73 79 80 71 68 62 60 60 54 66 92 88 87 88 82 81 96 95 76 64 82 45 51 42 47
57 62 62 63 57 76 86 91 88 85 86 78 77 74 70 60 60 61 63 86 78 76 93 95 87 79 66 64 54 49 37 46
65 62 66 68 52 68 71 94 92 88 89 93 89 81 85 87 79 70 80 70 78 90 97 92 81 67 62 61 51 42 39 52
71 68 65 63 64 63 77 87 90 80 87 92 91 78 82 86 82 82 69 87 93 97 96 90 74 70 61 54 49 44 42 43
58 66 69 60 60 62 59 64 79 84 84 89 90 81 86 90 87 80 87 82 92 95 95 96 78 68 58 51 49 46 45 45
56 69 69 65 62 60 56 50 69 79 88 89 85 85 83 87 86 87 84 90 97 97 96 95 93 67 56 50 48 48 43 42
48 60 68 76 64 58 52 53 63 66 75 83 85 81 75 77 81 88 87 95 96 98 98 96 94 73 60 51 46 45 46 44
46 61 69 82 79 62 60 77 78 72 72 76 76 71 71 76 83 92 94 98 97 96 97 95 93 73 58 53 48 44 47 42
44 54 66 82 85 64 58 84 82 80 85 70 72 72 72 74 79 97 97 97 98 98 97 95 93 68 54 53 52 46 46 47
45 55 63 80 82 75 80 91 90 80 86 77 75 77 78 81 85 93 94 94 96 96 97 96 97 84 71 71 70 58 57 58
44 48 56 69 63 60 61 73 80 74 82 75 73 79 85 84 90 92 94 93 94 95 96 98 96 87 80 69 90 85 70 63
41 44 51 62 55 53 61 69 80 82 80 88 81 76 88 91 89 92 96 93 91 93 93 90 93 90 79 64 87 85 79 67
38 42 48 58 57 59 70 66 69 63 67 76 82 78 84 93 94 92 93 95 94 86 82 88 77 78 71 58 54 55 69 79
41 44 47 56 59 61 64 60 55 55 62 74 71 67 71 80 97 93 94 94 92 90 85 82 78 72 68 66 62 62 56 52
47 48 50 57 65 63 64 64 60 58 64 61 62 68 63 67 72 94 94 92 93 92 87 83 81 73 63 64 63 71 66 63
50 50 52 67 74 66 64 66 63 61 59 56 56 67 70 67 72 87 94 93 92 94 93 91 90 84 78 72 74 74 77 78
51 50 54 72 76 71 65 66 58 56 59 51 55 58 64 69 76 82 86 88 92 95 95 95 90 92 87 85 81 70 75 77

GFSFLT2_sfc_rhum_105.txt.gz
RH
66 71 79 96 94 94 94 95 93 90 90 90 86 88 88 87 86 83 83 83 85 87 87 93 95 94 91 93 89 85 56 49
62 66 69 72 74 95 95 94 95 94 93 94 91 91 89 90 88 87 85 83 84 86 90 96 96 95 92 89 88 82 43 53
59 58 59 63 68 75 93 96 95 95 90 94 91 67 72 72 74 86 88 87 87 88 88 97 97 96 94 92 86 44 44 63
49 53 53 57 63 70 69 68 66 66 65 70 68 60 64 60 66 88 88 88 86 85 84 95 94 96 96 88 60 60 56 62
44 52 53 57 57 59 55 60 70 68 69 72 72 67 71 62 73 60 63 87 63 67 76 78 91 93 88 65 67 64 58 51
40 45 54 57 44 55 69 62 63 62 68 73 80 80 82 77 68 66 66 73 66 77 81 90 94 91 84 65 58 57 63 57
43 44 53 54 56 51 53 59 67 70 67 71 73 73 76 74 73 70 63 74 73 83 88 94 94 91 86 66 60 53 59 56
41 50 54 53 54 57 57 62 68 68 70 66 72 75 76 71 75 71 77 84 90 85 90 94 94 93 83 65 60 44 53 56
44 58 57 56 56 54 52 48 55 79 82 73 74 72 74 75 80 83 85 84 83 90 92 96 96 97 76 70 54 42 43 56
34 46 57 60 54 51 48 44 49 66 74 72 76 76 72 76 81 81 76 89 92 95 96 96 97 97 86 66 49 46 44 49
29 46 58 62 56 52 52 51 50 48 63 65 72 75 72 74 78 74 77 79 96 96 98 94 96 98 91 53 56 49 44 34
26 41 57 62 58 55 50 50 65 56 57 59 64 64 74 72 78 74 77 92 96 97 97 96 94 95 87 63 56 55 41 45
28 41 55 61 74 58 52 64 82 77 76 66 62 59 66 75 76 90 91 96 97 97 97 98 99 96 92 86 75 72 62 59
29 34 46 57 65 53 46 66 75 63 74 65 65 58 66 70 79 88 92 94 97 98 97 98 99 97 90 76 89 82 72 64
24 33 40 52 57 50 50 60 69 70 72 68 70 64 72 74 77 86 92 92 95 96 96 96 96 98 78 68 89 89 73 68
22 29 34 43 55 50 56 53 65 64 67 69 64 71 71 74 82 90 89 94 95 93 87 96 95 95 92 91 77 81 80 78
26 26 31 39 51 50 51 56 56 54 56 66 73 66 66 78 86 81 92 92 93 92 88 92 94 91 87 90 83 74 67 60
26 29 31 37 50 54 56 61 53 51 54 64 74 73 71 66 84 91 89 90 92 94 90 89 85 84 84 76 68 71 69 64
25 30 32 37 51 53 55 57 53 54 56 55 55 70 65 66 74 84 95 92 88 93 92 94 89 83 78 69 65 65 63 62
22 25 34 35 50 52 54 54 51 50 54 48 48 58 63 64 73 78 82 87 93 92 94 95 93 93 85 89 78 72 78 76

GFSFLT2_sfc_rhum_108.txt.gz
RH
84 84 86 93 92 93 95 94 92 83 84 93 91 92 91 88 87 86 85 85 85 90 93 94 97 95 94 94 91 92 86 89
82 82 84 87 90 94 95 95 94 92 91 94 94 93 91 89 88 85 84 84 84 89 96 97 96 96 95 96 95 91 79 85
78 76 78 82 81 85 96 94 96 94 93 95 97 85 86 86 81 86 85 82 87 92 97 96 96 96 95 93 94 81 79 67
66 70 72 75 64 83 84 83 84 86 85 88 89 85 84 71 76 90 87 87 88 94 96 95 92 98 97 94 90 80 84 70
60 69 71 70 69 77 75 77 80 81 82 87 90 82 88 87 93 84 88 91 91 91 93 89 93 96 98 97 89 85 87 72
52 61 71 74 65 72 72 71 79 82 83 85 90 89 90 90 93 87 83 82 87 82 86 94 94 92 91 89 86 84 88 67
51 57 67 69 74 69 75 82 79 78 82 83 88 90 92 90 90 90 87 92 92 92 90 96 94 94 93 89 82 83 76 74
52 54 66 66 68 75 74 76 80 83 83 82 84 90 92 92 92 92 87 92 93 94 94 96 96 95 94 91 88 80 72 70
55 60 68 69 70 72 72 72 75 81 80 79 83 84 88 88 91 90 90 95 93 95 96 96 97 96 94 92 92 84 72 64
53 54 65 70 69 68 64 67 72 76 84 86 77 82 84 88 91 91 91 96 96 97 97 98 98 98 97 95 94 82 67 67
56 66 67 71 71 67 69 72 72 78 82 82 83 81 83 86 88 90 91 95 97 97 97 95 98 98 97 95 97 72 70 60
52 64 68 74 70 68 66 73 71 71 72 76 79 76 83 86 89 89 88 95 98 97 95 96 94 95 95 97 99 68 56 63
43 63 70 71 70 69 68 71 77 80 74 71 77 76 81 86 90 89 91 96 95 97 97 98 99 94 99 100 96 86 69 63
39 55 67 66 67 65 65 68 81 80 86 80 76 77 81 84 90 94 94 96 99 99 98 98 99 98 97 97 98 87 82 68
33 42 63 65 70 67 64 78 84 82 81 80 77 77 78 84 90 93 95 94 97 98 97 97 99 99 94 93 97 96 89 84
32 36 48 60 70 68 69 77 85 80 77 74 75 78 78 85 88 91 92 94 96 95 92 97 98 98 98 95 87 79 92 97
44 35 38 52 66 64 66 71 73 76 73 78 79 80 81 81 88 90 94 94 94 94 93 98 97 96 97 99 96 95 88 89
41 40 35 44 64 68 66 70 70 73 74 81 81 77 82 85 86 91 93 91 95 94 92 94 94 98 97 97 93 93 90 82
38 32 32 41 60 68 65 67 70 70 71 75 80 78 79 84 87 91 91 90 94 92 93 93 93 96 96 92 91 86 80 74
76 29 29 37 54 64 65 65 66 64 66 69 72 75 80 81 86 91 91 91 95 94 95 96 94 94 91 90 86 78 81 80

GFSFLT2_sfc_rhum_111.txt.gz
RH
97 95 92 94 96 97 98 97 94 86 85 94 94 93 92 89 90 90 88 88 89 93 94 94 93 94 94 95 97 95 92 97
97 97 97 97 97 96 97 96 93 88 84 90 95 94 92 91 90 89 88 86 89 92 95 96 96 94 94 95 96 93 94 96
95 96 97 97 96 94 96 95 94 94 93 96 99 97 95 90 91 90 90 88 89 96 97 96 95 94 93 92 92 93 92 97
92 94 95 95 85 96 98 95 99 98 97 97 98 97 96 88 88 90 88 87 93 96 96 96 94 97 97 93 88 85 91 94
88 88 90 92 87 98 98 99 99 98 96 97 97 96 96 95 97 94 96 89 98 98 98 98 97 98 98 94 90 90 94 95
80 83 84 86 84 94 93 95 95 96 96 96 98 98 98 97 98 98 97 97 98 99 99 98 97 97 96 93 88 94 97 95
73 76 78 78 80 89 90 90 92 93 96 94 96 97 97 97 98 98 97 98 97 98 97 97 98 96 94 90 89 87 93 96
65 68 74 74 78 86 84 93 92 97 96 92 95 97 97 97 97 97 98 97 97 96 97 98 98 97 97 94 91 89 90 91
62 67 76 72 75 84 83 88 92 95 96 94 94 96 96 96 98 98 97 98 97 98 98 99 99 98 95 96 93 92 91 85
57 61 71 74 68 82 80 83 91 95 96 95 88 90 94 96 97 97 98 98 98 98 98 98 98 97 97 98 96 96 95 82
57 65 72 76 74 78 81 88 89 92 96 96 87 86 93 94 96 97 94 98 98 98 99 95 96 98 98 98 98 98 97 78
55 65 73 73 77 80 78 91 91 90 93 93 91 82 93 96 96 96 97 97 98 99 98 99 96 97 96 96 96 98 98 79
64 68 75 76 78 78 80 87 92 94 92 88 87 89 93 96 97 96 96 97 97 97 98 98 99 98 98 98 98 99 99 84
69 70 77 72 70 70 78 91 95 93 93 91 88 90 92 94 95 96 95 98 99 98 97 99 97 97 98 96 100 100 96 84
65 70 78 74 72 83 90 94 94 96 96 96 92 87 92 93 95 96 96 95 97 98 96 94 97 98 94 97 99 99 91 89
49 72 75 74 76 74 78 84 92 90 95 94 95 92 90 93 95 96 97 96 95 96 94 95 96 98 99 98 93 73 83 96
63 53 74 72 74 73 77 88 92 96 96 93 93 92 92 94 96 97 96 97 94 93 95 96 94 98 97 97 97 95 95 92
66 68 59 78 78 77 75 82 90 89 91 89 91 90 92 95 95 95 92 95 96 94 93 96 95 96 97 94 91 89 95 95
65 70 73 68 79 76 75 73 82 87 85 90 89 95 91 96 96 97 95 92 93 93 95 96 97 96 96 95 94 92 96 93
72 77 81 79 78 75 72 69 78 80 80 86 87 85 91 94 95 95 94 92 94 95 96 96 96 96 96 95 94 93 91 83

GFSFLT2_sfc_rhum_114.txt.gz
RH
97 96 95 97 98 98 97 96 97 97 97 96 95 93 93 92 91 90 89 91 93 94 94 94 93 93 96 95 93 90 94 99
98 98 97 98 98 98 98 98 94 92 97 97 96 94 93 92 93 91 89 90 92 94 94 94 94 95 97 96 94 89 92 96
98 98 98 98 99 98 99 98 94 91 90 91 98 97 96 94 94 93 90 90 92 94 96 96 96 96 96 96 95 95 96 98
97 98 98 98 91 98 99 98 97 97 97 97 99 98 98 93 94 93 93 91 95 96 97 97 97 98 98 94 93 89 94 96
97 97 97 97 93 99 100 99 99 99 98 98 99 98 99 98 98 96 97 94 99 98 99 99 96 98 98 97 94 92 96 96
94 95 96 97 97 98 98 99 99 99 99 98 99 99 99 99 98 98 97 97 98 96 97 98 96 96 96 95 95 95 97 97
93 89 92 94 97 97 98 98 98 97 98 97 98 99 98 98 98 98 98 98 99 99 99 98 98 97 97 95 93 94 93 97
87 88 88 89 91 95 95 95 97 97 97 95 96 97 98 98 98 98 98 97 98 98 98 98 98 98 97 95 92 93 94 95
82 84 86 86 83 90 91 93 94 97 97 96 95 95 96 96 98 98 97 98 98 99 99 99 99 98 97 97 98 95 96 93
74 74 83 83 79 85 84 89 93 95 98 96 94 94 95 97 97 98 98 98 98 98 98 98 98 97 99 99 99 95 95 92
70 73 81 80 78 84 84 88 92 91 96 95 95 95 95 96 97 98 97 99 98 98 98 94 98 98 97 98 99 97 97 93
63 70 75 79 78 91 90 91 93 90 89 93 94 94 95 96 98 97 97 97 98 99 97 96 97 97 94 97 98 98 98 99
64 70 74 79 82 92 92 91 93 94 91 92 92 94 94 96 97 97 98 96 96 97 97 98 99 96 99 99 99 98 98 98
65 68 75 75 77 76 84 85 96 92 96 94 90 93 95 96 96 96 97 98 98 97 97 99 99 99 98 98 100 100 99 98
78 73 77 73 72 87 97 98 98 99 98 96 94 91 93 95 95 96 97 97 94 95 96 95 98 99 95 96 100 98 98 99
68 76 84 75 74 81 90 85 90 88 90 92 95 92 94 95 96 96 97 97 97 97 95 95 95 98 98 95 96 93 93 100
70 71 78 89 87 79 82 80 77 95 93 95 92 94 94 95 96 97 97 98 97 97 96 96 95 94 94 99 98 96 95 92
74 76 76 82 90 93 90 88 90 95 93 93 93 93 96 97 97 97 97 97 97 97 93 95 95 95 96 94 94 92 94 90
73 78 82 81 84 87 89 84 92 92 91 88 93 94 95 97 96 97 98 96 96 95 94 95 96 95 96 95 95 95 93 94
77 75 78 82 88 87 86 81 90 85 90 89 91 91 90 96 96 95 96 95 94 94 94 95 97 97 96 95 95 94 92 89

GFSFLT2_sfc_rhum_117.txt.gz
RH
97 96 96 97 98 98 94 94 97 97 96 96 95 95 94 93 92 91 91 92 94 94 93 93 92 93 96 94 94 91 95 97
98 98 98 98 98 98 96 95 98 97 97 97 96 95 95 94 94 92 91 92 93 94 94 94 93 97 95 94 94 91 96 95
98 98 99 99 95 98 98 97 97 98 98 97 98 97 96 95 96 93 91 93 94 95 95 95 98 97 97 95 92 95 96 98
98 98 99 99 94 93 94 93 97 97 97 98 98 98 98 96 96 94 92 93 95 96 96 97 98 99 99 96 99 97 97 96
98 97 98 98 98 94 94 92 98 99 97 98 99 99 99 99 99 99 98 95 99 98 99 100 98 99 99 98 96 96 98 97
92 94 96 97 98 96 94 90 93 96 98 99 99 99 100 99 99 99 99 99 99 99 97 99 97 96 96 96 95 97 99 98
89 92 92 93 97 98 99 96 94 93 95 98 98 97 98 99 99 99 99 99 96 96 97 99 98 97 97 96 96 95 96 99
90 94 92 92 94 96 96 98 98 99 99 98 98 98 99 99 99 99 99 98 99 97 99 99 98 98 98 96 95 96 95 96
94 91 90 92 90 94 93 94 96 97 98 98 97 98 98 98 98 98 98 98 98 99 99 99 99 99 98 97 96 95 96 96
89 85 92 92 89 94 92 94 95 93 97 97 97 97 97 98 98 98 98 99 98 99 99 99 99 99 99 99 99 98 97 98
85 88 92 94 89 92 92 95 95 94 97 97 96 96 96 98 98 98 98 98 98 98 98 95 98 98 97 99 99 99 98 96
73 84 87 90 87 94 98 99 98 98 97 97 96 94 96 97 98 98 98 99 98 99 98 97 96 96 94 97 98 98 98 98
74 84 84 89 92 98 98 98 98 98 97 95 96 94 96 98 98 98 98 97 97 98 98 98 99 98 99 99 99 98 97 97
67 77 79 84 82 84 87 88 96 96 98 97 95 96 96 97 97 98 98 96 98 98 98 99 99 98 99 98 100 100 98 98
85 86 76 80 78 85 99 98 99 100 99 95 94 94 96 95 96 97 98 97 97 97 97 97 99 99 96 96 100 99 96 97
80 80 92 90 88 90 94 90 95 91 88 88 93 92 94 95 95 96 97 97 97 96 95 96 96 98 99 98 94 92 99 100
81 81 84 84 88 91 95 95 94 96 96 94 96 96 93 95 96 97 97 97 95 95 92 97 96 95 96 99 97 97 97 97
78 80 82 83 88 90 94 94 95 98 99 98 96 97 97 96 96 97 96 98 98 98 97 96 96 96 96 97 95 96 96 96
76 77 80 82 85 90 87 93 94 92 94 95 97 97 97 96 96 98 97 97 97 97 96 97 97 97 96 96 94 92 90 89
81 80 77 76 80 84 87 86 93 89 79 87 92 93 93 92 93 94 96 97 95 94 96 96 97 98 96 97 95 93 94 89

GFSFLT2_sfc_rhum_123.txt.gz
RH
86 83 86 97 97 97 96 94 94 94 95 96 96 96 95 94 94 93 93 94 94 92 92 93 93 94 93 94 94 91 68 72
86 87 84 84 87 98 96 96 95 95 95 96 97 96 95 93 94 93 93 94 94 92 93 93 94 94 92 93 94 92 62 63
85 85 84 85 85 87 96 96 96 96 93 96 94 74 77 79 82 94 94 95 94 92 93 94 96 95 94 92 92 63 65 61
79 80 80 81 76 84 85 82 81 79 79 82 79 79 77 72 82 94 94 95 94 94 93 98 92 84 80 86 65 68 63 65
79 80 78 79 75 77 84 79 85 86 86 88 88 82 85 80 84 75 76 89 75 78 79 75 90 90 80 74 68 67 61 61
73 79 81 81 74 75 80 80 85 88 89 90 90 89 90 88 85 86 76 74 80 74 72 91 81 79 76 76 74 68 62 59
74 82 84 81 81 77 77 84 86 85 87 88 88 87 89 88 86 89 84 84 79 80 81 79 78 77 75 73 70 70 69 64
71 77 82 81 82 79 79 82 84 84 84 86 90 86 88 93 90 88 90 83 83 78 79 81 77 77 79 80 73 68 66 68
71 77 79 82 83 80 79 77 80 81 79 84 89 86 86 92 92 89 84 90 88 88 89 89 80 80 80 84 70 69 67 66
67 67 78 80 78 79 79 80 81 81 82 81 85 85 86 91 93 89 87 92 96 95 95 94 84 80 78 76 75 74 70 68
66 71 74 80 78 76 78 82 84 82 87 86 84 85 88 91 90 88 91 89 92 93 95 89 90 90 81 78 79 79 74 67
63 71 73 77 73 76 76 80 77 83 82 78 85 84 90 90 88 90 90 91 93 92 89 93 87 85 84 83 84 84 79 77
65 77 76 73 73 79 77 80 83 85 73 74 78 80 87 89 88 90 89 91 94 94 94 96 97 94 96 98 97 91 91 88
59 69 79 79 70 69 71 73 76 83 81 77 77 78 86 83 87 88 91 92 93 95 95 98 96 96 95 92 95 94 96 86
69 67 72 85 76 76 85 88 89 93 89 86 84 79 80 82 84 84 90 90 91 90 94 89 93 96 85 76 92 83 86 86
70 73 73 77 89 84 89 83 84 82 85 88 89 83 78 81 88 87 88 91 93 90 88 90 85 90 92 89 77 66 73 79
70 71 75 80 84 91 91 88 81 73 81 87 92 88 89 86 91 92 93 90 88 92 88 90 89 82 82 90 94 90 80 79
71 73 73 77 82 88 94 92 87 90 86 86 85 93 95 96 94 94 95 95 93 92 87 85 84 85 82 84 85 87 91 86
72 76 79 76 80 84 87 90 92 94 85 89 91 93 97 96 96 96 95 94 93 92 92 88 86 82 83 84 82 80 71 79
80 79 80 78 81 83 84 87 91 90 92 93 92 93 90 86 93 93 89 92 92 93 94 92 92 92 86 87 84 82 81 85

GFSFLT2_sfc_rhum_126.txt.gz
RH
67 70 78 97 96 95 94 93 94 94 95 96 96 96 95 94 92 90 91 90 92 93 92 92 93 93 94 95 94 89 53 58
67 66 68 70 73 96 94 94 94 95 96 96 97 97 96 95 94 93 93 92 92 92 92 93 93 93 93 94 93 90 48 45
65 62 61 64 63 72 93 95 94 96 92 97 92 62 70 76 76 94 94 94 92 92 93 94 95 94 92 92 94 43 43 42
56 60 59 60 51 61 67 64 61 63 66 71 64 59 59 56 71 94 95 95 93 92 93 95 91 52 60 84 48 44 45 42
54 60 60 59 53 54 59 54 56 59 64 65 64 60 61 58 58 64 63 86 60 70 73 58 54 52 48 49 46 51 39 39
48 54 60 63 48 51 60 57 72 68 59 67 64 61 66 64 58 57 59 56 56 55 53 55 63 61 54 53 52 46 40 38
48 52 59 59 62 51 54 55 63 72 75 78 74 58 64 61 61 58 58 58 56 54 53 60 60 57 54 53 52 51 48 41
46 50 62 63 62 59 57 58 55 68 72 76 83 61 64 59 63 69 60 60 56 55 53 59 55 54 55 54 51 48 47 47
37 55 61 67 67 59 57 52 54 60 67 78 84 72 72 78 74 67 76 63 65 61 60 61 58 58 56 54 51 54 49 49
20 41 56 63 62 57 50 50 58 55 65 63 79 78 68 80 77 73 64 82 79 79 78 74 58 60 61 54 51 49 53 51
17 37 54 60 59 56 56 58 70 57 59 53 69 77 75 73 76 77 77 84 90 84 83 72 68 62 60 61 60 56 54 48
18 28 53 59 54 56 52 54 63 59 65 63 62 71 76 80 75 79 86 79 87 87 87 86 72 64 58 59 63 60 58 57
23 28 48 54 54 53 52 55 55 56 52 58 62 74 77 80 74 85 86 80 82 86 90 89 88 72 81 85 85 79 74 68
45 37 37 50 50 46 45 47 48 49 51 53 56 61 76 80 78 80 81 71 81 85 87 92 89 85 89 85 84 66 79 78
52 48 46 53 60 50 47 48 51 53 56 53 54 58 63 80 70 70 71 69 76 85 86 91 95 93 79 61 74 65 49 57
60 54 56 75 80 67 63 58 62 58 59 54 56 63 61 62 67 64 66 76 72 77 78 82 83 92 91 64 54 50 51 53
70 69 66 67 85 95 91 69 56 54 65 69 80 77 70 60 64 68 77 78 79 85 87 90 73 76 71 64 73 67 63 57
73 73 73 76 76 87 96 89 70 70 76 78 81 90 90 85 74 82 82 87 89 89 87 86 81 74 62 59 62 72 79 80
84 78 79 78 81 82 85 87 88 89 91 91 87 90 88 90 89 90 90 88 89 86 86 86 82 78 74 64 60 57 56 65
83 82 82 79 81 80 81 82 85 84 87 85 90 93 89 86 90 92 92 90 86 83 81 83 83 80 77 68 62 63 58 60

GFSFLT2_sfc_rhum_132.txt.gz
RH
84 80 84 96 94 95 96 96 96 95 95 96 96 96 95 93 92 92 92 89 91 91 90 91 92 93 94 94 93 91 87 84
82 78 78 82 87 96 95 96 96 96 96 96 97 96 95 94 93 93 91 89 91 92 91 92 92 93 94 93 92 88 88 70
84 81 73 77 74 82 96 95 95 96 95 97 98 87 91 89 88 91 92 91 92 91 91 93 93 93 92 91 92 78 67 71
70 77 77 71 57 74 82 78 83 86 86 93 87 82 81 71 79 93 94 93 92 91 92 94 97 83 92 93 87 76 73 81
58 74 74 72 62 68 70 70 74 77 80 85 86 75 78 75 80 85 93 96 89 90 94 88 80 74 76 81 73 75 75 69
19 68 71 81 66 60 68 66 72 72 73 80 81 79 82 77 80 81 87 87 84 81 82 81 77 72 73 77 73 80 88 92
31 38 72 66 67 64 62 66 68 69 72 74 77 75 78 78 77 79 77 80 78 81 74 74 74 72 68 68 72 65 64 81
23 31 48 68 76 67 73 71 70 67 69 70 76 74 76 78 80 77 76 78 76 84 74 76 74 68 71 68 65 65 64 82
24 30 40 69 69 71 61 83 61 68 72 76 74 73 75 75 78 78 77 77 80 84 82 84 82 80 76 73 68 64 64 62
26 21 32 46 68 76 64 59 66 64 70 73 80 75 72 76 78 77 78 82 79 80 83 82 81 85 78 79 71 66 65 62
39 46 48 54 63 70 68 73 64 60 69 68 74 78 79 80 74 78 79 80 84 83 84 82 84 83 80 86 83 77 74 62
52 51 50 56 52 66 75 78 68 62 60 62 70 78 78 80 77 84 86 78 83 87 87 87 83 80 65 72 75 76 80 80
56 58 58 53 52 64 73 80 79 77 58 60 67 75 81 81 81 86 82 85 80 87 94 94 94 88 89 89 91 88 87 87
63 60 61 59 58 58 74 81 79 73 62 58 62 75 83 76 83 83 81 74 86 86 89 93 88 88 93 92 94 91 88 82
66 66 68 68 67 64 80 86 86 79 74 61 63 66 80 80 79 80 82 81 77 85 86 85 96 88 90 89 93 92 79 80
70 72 73 69 70 74 85 93 93 75 71 64 60 64 72 81 80 77 83 80 78 80 86 85 86 84 94 83 87 91 85 85
76 75 76 72 76 82 93 94 92 81 68 68 63 67 68 75 80 82 83 84 82 84 86 89 84 78 88 95 86 84 89 90
83 82 78 77 79 86 94 96 96 90 93 83 69 78 76 78 82 83 80 83 86 84 87 87 88 85 84 82 84 91 86 88
89 87 84 84 86 90 92 94 96 97 96 98 97 96 96 97 89 90 88 85 82 83 87 87 87 86 85 88 82 79 78 78
95 95 91 88 89 91 91 91 94 95 97 97 97 97 94 97 97 94 92 93 90 92 87 90 90 91 89 88 87 81 80 73

GFSFLT2_sfc_rhum_135.txt.gz
RH
89 93 91 94 96 97 98 97 96 95 95 96 96 96 95 93 94 94 94 94 94 91 91 91 92 92 93 92 93 89 86 92
93 93 95 96 97 97 98 97 97 97 96 96 97 96 95 94 94 94 93 92 93 92 91 92 92 93 93 94 92 90 90 91
95 92 89 93 94 92 96 96 97 98 97 97 99 98 97 95 95 95 94 93 93 92 92 93 94 94 93 92 92 90 85 96
94 92 91 86 72 89 96 94 98 98 98 97 99 98 98 90 94 95 94 94 94 93 93 94 96 98 98 93 96 89 88 95
71 92 89 88 72 87 92 97 99 98 98 98 98 92 96 92 96 94 98 96 97 95 96 98 97 95 95 97 91 89 95 93
22 52 92 94 92 82 83 82 89 93 94 97 98 95 96 92 92 97 98 98 98 97 98 97 94 86 86 87 83 90 97 98
38 29 54 82 88 88 88 78 82 80 84 89 92 91 91 87 94 94 96 98 97 96 95 90 88 86 84 80 81 87 91 94
45 44 44 48 67 75 87 93 84 78 79 81 88 84 93 88 94 92 93 94 92 92 90 93 87 88 84 74 77 77 76 90
51 53 54 51 58 76 79 91 92 84 77 79 83 83 84 86 88 92 88 91 91 95 92 94 93 87 75 72 73 69 70 83
52 51 57 58 58 71 75 79 90 88 83 80 80 82 77 91 83 89 87 89 87 88 96 96 89 94 91 82 73 69 68 76
57 57 62 62 61 62 70 77 83 85 88 84 82 80 80 86 84 85 88 87 92 86 94 93 95 95 91 91 84 81 78 67
59 61 64 64 65 64 67 80 83 86 89 86 88 82 82 81 89 86 85 87 90 92 91 95 94 93 79 87 92 86 86 89
61 67 67 67 70 73 74 81 83 86 86 72 85 81 83 86 92 93 84 85 89 91 96 96 96 94 95 94 95 94 93 94
61 67 69 69 71 73 78 81 84 84 82 82 89 80 81 78 83 93 92 89 94 95 94 98 97 96 96 96 96 94 96 92
67 72 70 73 74 72 78 83 82 83 81 84 74 74 84 79 78 88 88 88 92 92 90 90 96 97 92 94 97 97 96 96
75 74 72 68 72 78 86 88 81 81 79 77 75 72 83 80 78 85 82 84 81 92 84 80 84 94 97 90 92 92 89 92
72 75 75 73 76 83 90 94 89 82 84 84 86 82 75 86 80 84 88 82 80 77 79 80 82 86 87 98 93 96 96 98
80 84 83 78 78 84 91 94 94 94 88 92 94 92 82 84 87 84 90 87 87 83 80 86 88 87 82 86 86 88 84 96
89 88 88 84 87 87 90 93 95 97 97 99 97 96 94 96 96 96 94 92 87 85 92 90 91 90 86 88 83 86 87 86
96 92 91 90 92 89 90 91 94 96 94 96 98 98 98 97 97 96 94 95 95 91 92 94 92 94 93 89 91 86 88 88

GFSFLT2_sfc_rhum_138.txt.gz
RH
95 94 92 95 97 98 98 97 96 95 96 96 95 96 95 94 94 95 94 94 94 91 91 91 92 92 92 93 94 90 92 96
97 95 95 96 98 98 99 98 98 97 97 98 98 97 96 95 95 96 96 95 94 92 92 92 92 93 93 95 94 89 92 93
96 97 96 96 96 95 98 98 99 99 98 98 99 98 97 96 96 97 96 96 95 93 93 93 94 94 94 95 93 91 96 98
46 54 80 93 80 94 97 96 99 99 99 98 96 98 98 94 96 97 96 95 95 94 94 94 97 98 98 94 97 91 95 98
51 52 69 75 83 94 99 98 99 99 99 94 94 97 99 99 99 98 99 96 98 98 97 99 98 98 98 98 95 93 97 98
50 56 68 72 80 85 91 94 97 98 98 98 95 99 99 99 99 99 99 98 99 99 99 99 98 96 95 95 92 94 97 99
53 52 62 59 70 78 90 88 96 95 95 97 97 98 98 98 98 98 97 93 98 99 98 98 98 97 94 92 90 92 95 98
54 53 56 58 62 68 81 91 90 97 95 90 94 92 91 96 96 97 97 96 97 98 98 97 96 96 92 89 87 89 92 95
57 55 58 62 64 69 70 82 85 92 93 90 92 90 88 88 94 95 95 96 97 98 97 97 97 94 93 90 85 88 86 85
55 53 62 63 65 68 62 71 83 90 90 93 89 87 85 87 89 91 92 95 96 96 96 97 95 96 92 92 81 82 83 84
55 57 64 65 65 67 71 72 84 87 88 88 88 86 83 85 84 87 91 93 94 93 94 92 97 95 93 94 89 78 80 80
54 57 63 66 68 69 71 73 79 82 88 88 82 83 83 90 84 86 91 90 92 93 91 95 93 90 83 90 96 92 87 93
60 64 69 72 74 79 78 83 82 83 82 76 75 81 87 90 91 89 90 88 89 92 92 96 96 95 97 96 96 96 94 95
63 70 70 70 72 73 71 72 78 85 79 79 75 76 85 92 90 92 90 90 90 95 92 94 94 93 92 95 95 94 97 92
66 68 69 72 69 68 72 74 77 85 82 77 67 73 78 88 93 89 91 89 92 93 88 89 93 98 90 90 98 96 97 97
67 71 71 69 74 78 86 88 88 83 85 75 74 75 81 81 84 84 88 89 88 87 87 87 88 94 98 84 91 91 92 89
71 76 73 70 74 83 90 92 90 87 86 86 82 82 79 83 83 83 86 91 87 85 88 89 88 87 87 91 90 98 97 97
75 80 83 76 78 87 93 94 92 93 90 90 90 89 87 92 89 91 93 93 90 92 89 86 87 82 88 93 84 87 91 99
85 85 94 83 92 94 91 90 92 94 93 91 94 96 98 97 96 94 94 94 95 89 93 91 92 85 90 87 90 87 93 90
92 95 95 94 95 95 94 89 92 92 94 95 97 98 97 95 97 96 95 94 98 97 97 97 96 96 92 89 88 88 95 94

GFSFLT2_sfc_rhum_141.txt.gz
RH
91 95 95 96 99 98 97 96 96 96 95 96 95 96 96 94 94 95 94 95 94 91 91 92 91 91 91 94 95 91 92 97
59 58 59 85 97 100 99 98 96 96 96 97 98 97 97 96 96 96 95 95 95 92 92 92 92 93 94 95 94 90 95 95
55 69 65 65 68 89 97 99 98 98 98 98 99 99 98 96 97 97 97 97 96 93 93 94 94 94 95 96 93 95 93 98
53 54 68 67 58 78 82 94 99 99 99 99 96 94 99 96 97 98 98 98 97 95 94 94 96 98 99 96 98 94 96 98
54 54 66 74 72 79 80 90 92 97 95 96 92 89 95 99 99 99 99 98 99 98 98 99 98 99 99 99 98 96 98 99
55 55 60 64 69 75 86 90 91 80 89 94 96 96 94 92 94 93 95 95 97 99 99 99 98 98 97 97 97 97 98 99
56 54 62 59 61 67 85 87 92 92 89 93 96 94 94 90 89 91 93 90 91 97 99 98 98 98 98 97 96 96 95 99
53 53 60 61 65 67 72 87 91 90 92 90 87 94 96 95 93 91 89 85 86 93 99 98 98 98 97 97 95 94 95 98
54 53 56 62 63 66 68 74 77 88 91 88 87 88 93 95 94 93 90 85 82 90 98 98 99 98 96 96 96 91 91 96
55 53 59 63 66 69 67 68 77 84 90 88 83 82 86 92 94 92 91 89 85 88 93 98 98 98 95 97 92 92 88 92
58 59 65 69 70 72 72 76 80 86 89 89 84 83 88 94 94 92 94 91 91 88 89 96 98 98 96 96 97 94 87 85
60 63 68 70 70 71 73 75 74 81 88 87 84 84 81 90 93 94 91 93 92 92 92 94 94 95 90 92 96 96 87 96
68 69 70 72 77 80 77 73 68 69 78 82 81 83 81 89 93 92 92 91 89 92 94 95 98 96 99 98 97 97 96 97
68 65 67 68 68 70 73 75 73 69 69 79 83 81 84 86 93 90 97 96 90 95 95 95 96 97 94 97 98 95 97 96
67 66 68 68 67 67 70 73 76 75 71 69 76 78 80 83 81 86 90 96 94 92 94 92 94 97 91 90 98 93 92 98
72 68 70 72 74 77 85 90 95 82 80 74 79 77 77 80 83 86 89 93 97 93 91 93 92 95 96 83 90 92 93 96
69 71 73 74 76 82 94 95 92 86 84 84 77 84 87 84 84 84 88 90 93 90 87 91 91 90 89 91 94 96 94 94
73 78 79 77 84 91 96 96 96 94 86 90 88 85 82 90 88 90 96 92 98 91 93 87 91 90 90 89 86 80 93 99
80 86 87 79 82 84 94 96 96 96 93 95 95 94 95 97 96 97 98 96 96 97 95 98 93 94 94 94 90 83 82 91
86 87 88 88 94 94 90 95 96 95 91 94 95 96 97 95 98 97 97 97 96 98 96 98 98 99 98 97 95 95 98 97

GFSFLT2_sfc_rhum_147.txt.gz
RH
61 57 57 64 66 69 77 84 93 95 96 96 95 96 96 94 94 94 93 94 94 92 90 90 90 91 92 93 95 94 63 62
57 57 56 58 55 64 66 72 79 88 94 95 97 98 96 96 95 95 94 94 95 92 91 92 91 92 93 95 95 94 62 64
52 51 54 55 45 52 62 66 68 78 78 89 90 89 85 80 83 92 96 95 96 95 93 93 94 94 93 95 95 58 59 62
44 51 54 53 39 54 54 53 60 62 70 70 81 87 88 89 90 98 96 97 96 97 94 94 92 61 64 88 61 59 63 66
46 51 55 55 50 49 47 52 54 55 63 69 71 79 88 90 95 92 85 88 80 82 80 71 67 65 63 63 62 66 64 62
45 48 55 60 55 51 52 53 56 56 58 65 74 89 84 93 94 94 94 85 84 85 83 75 74 72 71 70 68 63 61 65
51 50 56 56 60 57 58 58 59 66 59 64 66 73 88 83 88 94 92 94 89 88 87 83 76 73 71 70 66 71 70 64
54 53 57 57 60 64 60 59 60 60 62 64 72 73 73 84 85 86 95 92 93 90 88 88 84 71 71 70 68 65 65 67
56 57 58 61 61 61 58 58 62 61 62 71 69 71 73 75 76 87 88 95 92 93 91 90 91 82 72 68 67 69 64 64
56 54 59 62 61 59 55 56 60 59 60 62 71 72 72 74 73 74 88 93 96 94 91 93 91 90 81 68 66 63 68 63
57 60 61 64 62 58 58 61 56 56 57 60 67 68 72 78 79 78 80 82 90 96 93 89 88 90 85 69 68 65 65 60
58 59 62 63 58 59 57 57 57 56 57 58 68 66 70 75 75 76 74 73 80 88 95 92 86 85 84 77 68 68 62 66
60 62 63 61 60 67 68 69 63 64 63 66 69 69 69 73 74 76 74 74 74 77 82 95 97 90 93 94 83 76 74 66
60 60 63 62 60 63 68 73 72 71 66 65 71 71 73 70 72 74 76 81 82 80 79 84 91 97 97 91 93 87 84 76
63 62 64 65 67 65 68 69 70 72 71 71 68 71 73 78 71 75 77 76 78 81 80 81 90 88 98 96 90 79 67 74
63 66 63 62 67 68 73 78 83 76 78 79 78 74 76 77 81 81 81 84 81 78 68 77 84 88 97 95 97 80 66 74
65 65 64 66 67 70 69 79 77 71 80 84 79 78 79 80 84 85 89 90 88 84 80 79 82 86 85 94 96 97 90 65
65 67 65 66 68 67 75 80 82 84 84 86 85 86 86 84 85 90 90 92 92 85 84 83 85 85 83 85 83 88 92 87
70 74 71 69 71 68 75 78 81 83 86 91 90 91 92 91 90 91 92 93 93 88 85 82 87 90 85 85 83 81 76 79
78 79 78 74 72 72 77 75 82 79 84 92 94 93 92 88 89 89 90 90 93 92 88 82 84 92 86 83 88 96 94 97

GFSFLT2_sfc_rhum_150.txt.gz
RH
52 48 48 55 57 65 66 68 74 83 91 95 95 96 96 93 91 93 93 93 94 93 92 91 90 90 91 92 94 92 52 40
49 46 46 49 44 56 59 60 63 68 75 80 90 95 94 97 96 96 94 93 94 94 92 91 91 92 92 95 94 93 52 39
44 42 44 46 36 40 49 52 53 60 58 70 71 69 71 68 74 85 96 96 94 96 94 92 93 93 92 95 94 47 40 38
35 43 45 44 30 42 41 39 40 43 48 53 50 57 69 72 80 94 96 97 97 96 96 94 91 49 52 85 54 42 40 38
35 42 48 48 42 38 35 36 40 43 48 54 52 46 54 69 74 61 70 88 72 76 69 64 56 49 41 45 45 44 39 37
36 39 48 53 46 39 40 38 42 41 44 52 52 43 44 55 71 77 69 66 81 77 76 65 55 51 49 48 49 43 38 37
42 41 48 47 50 46 47 46 43 50 42 46 51 50 50 49 49 62 77 73 66 90 85 77 64 54 52 52 51 50 44 38
44 43 48 47 48 53 48 45 47 45 44 45 59 54 54 50 48 43 56 79 90 74 86 85 83 71 56 53 52 48 47 47
45 47 49 52 50 49 45 42 47 45 44 53 54 56 57 60 52 48 42 48 80 88 81 79 86 84 72 50 49 52 46 48
43 43 50 53 52 48 43 43 47 44 44 45 54 56 58 59 53 52 48 50 52 84 86 86 72 86 88 76 55 47 50 49
44 49 51 55 52 47 47 51 45 43 44 44 51 58 60 61 63 64 61 53 52 54 79 90 88 81 85 82 72 51 47 44
45 46 52 54 45 45 42 45 46 45 46 47 57 55 65 66 65 70 68 56 51 48 54 67 90 90 81 84 79 69 47 47
47 50 52 48 44 47 47 51 50 49 47 55 58 58 65 65 64 70 73 67 57 56 54 59 73 89 97 95 90 78 71 55
47 47 50 47 46 48 52 53 53 51 48 50 56 64 71 67 70 66 74 74 71 67 64 59 54 81 97 91 94 97 88 73
48 49 49 51 57 49 49 49 49 49 50 53 57 62 67 75 77 78 78 74 76 74 68 68 78 56 82 96 97 91 97 91
49 51 50 49 58 58 62 58 61 57 57 57 54 60 68 76 81 81 85 85 85 77 70 73 66 75 59 81 88 80 90 96
51 52 51 55 57 59 62 64 60 59 61 66 61 64 73 78 82 85 87 88 90 89 88 85 67 57 54 63 81 87 83 83
52 55 51 56 57 59 67 68 69 69 69 69 67 72 78 80 82 85 86 87 89 87 86 89 85 67 55 59 82 92 90 92
54 56 53 56 62 61 64 65 68 72 75 75 76 81 84 84 84 87 87 86 88 88 92 91 88 76 68 73 72 74 62 70
59 60 56 56 65 65 64 66 69 69 72 76 84 89 92 87 86 85 84 86 87 87 92 92 88 82 72 69 83 76 74 72